Terminal Aerodrome Forecast
Issued by NWS Lake Charles, LA

Home | Current Version | Previous Version | Text Only | Print | Product List | Glossary On
Versions: 1 2 3 4 5 6 7 8 9 10 11 12 13 14 15 16 17
000
FTUS44 KLCH 251100
TAFLFT
TAF
KLFT 251120Z 2512/2612 00000KT P6SM SKC
     FM251400 VRB03KT P6SM SCT020
     FM251700 24006KT P6SM VCSH SCT040
     FM260100 VRB03KT P6SM SKC=

USA.gov is the U.S. government's official web portal to all federal, state and local government web resources and services.